User: anonymous   Login
Location: Newark
(25.4800°N, 85.7200°E)
Time: 03:08:28
(UTC+00:00)
Language:

Explorer 11/Cluster Stage 4 - Orbit

View from above orbital plane
View from above orbital plane
View from above satellite
View from above satellite

Ground track
Ground track

The orbit data is extracted from the following two-line orbital elements,

1   107U 61013A   20220.45977547 +.00000355 +00000-0 +25140-4 0  9992
2   107 028.7886 253.3821 0546559 205.4937 151.7697 14.08978074973426
Epoch (UTC): 07 August 2020 11:02:04
Eccentricity: 0.0546559
inclination: 28.7886°
perigee height: 467 km
apogee height: 1258 km
right ascension of ascending node: 253.3821°
argument of perigee: 205.4937°
revolutions per day: 14.08978074
mean anomaly at epoch: 151.7697°
orbit number at epoch: 97342

The dashed part of the orbit path shows where the satellite is in the earth's shadow,  

DLR